Change the Weather History Date:

Tuesday, August 6, 2013

  Actual Average Record
Temperature  
Mean Temperature 60 °F -  
Max Temperature 75 °F 72 °F 75 °F (2012)
Min Temperature 45 °F 51 °F 41 °F (2007)
Degree Days  
Heating Degree Days 5    
Growing Degree Days 10 (Base 50)    
Moisture  
Dew Point 47 °F    
Average Humidity 66    
Maximum Humidity 94    
Minimum Humidity 18    
Precipitation  
Precipitation 0.00 in 0.06 in - ()
Sea Level Pressure  
Sea Level Pressure 30.04 in    
Wind  
Wind Speed 6 mph ()    
Max Wind Speed 15 mph    
Max Gust Speed -    
Visibility 19.0 miles    
Events      
Averages and records for this station are not official NWS values.
T = Trace of Precipitation, MM = Missing Value Source: Averaged Metar Reports

Daily Weather History Graph

Daily Weather History Graph

Search for Another Location

Airport or City:

Trip Planner

Search our weather history database for the weather conditions in past years. The results will help you decide how hot, cold, wet, or windy it might be!

Date:

Astronomy

Aug. 06, 2013 Rise Set
Actual Time 6:25 AM AEST 5:21 PM AEST
Civil Twilight 6:01 AM AEST 5:46 PM AEST
Nautical Twilight 5:33 AM AEST 6:13 PM AEST
Astronomical Twilight 5:05 AM AEST 6:41 PM AEST
Moon 5:31 AM AEST (8/6) 4:49 PM AEST (8/6)
Length of Visible Light 11h 45m
Length of Day
10h 56m
Waning Crescent, 1% of the Moon is Illuminated
Aug 6
Waning Crescent
Aug 7
New
Aug 14
First Quarter
Aug 21
Full
Aug 28
Last Quarter

Hourly Weather History & Observations

Time (AEST) Temp. Windchill Dew Point Humidity Pressure Visibility Wind Dir Wind Speed Gust Speed Precip Events Conditions
12:00 AM 53 °F - 46 °F 69% 30.11 in 31 mi NNW 5.8 mph - -   Partly Cloudy
12:00 AM 53.6 °F - 46.4 °F 77% 30.09 in - NNW 5.8 mph - N/A   Clear
12:30 AM 51.8 °F - 46.4 °F 82% 30.09 in - NW 3.5 mph - N/A   Clear
1:00 AM 50 °F - 47 °F 84% 30.10 in - WNW 4.6 mph - -  
1:00 AM 50.0 °F - 46.4 °F 87% 30.09 in - WNW 4.6 mph - N/A   Clear
1:30 AM 50.0 °F - 46.4 °F 87% 30.06 in - SSW 3.5 mph - N/A   Clear
2:00 AM 48.2 °F - 44.6 °F 87% 30.06 in - WNW 2.3 mph - N/A   Clear
2:30 AM 48.2 °F - 46.4 °F 93% 30.06 in - West 5.8 mph - N/A   Clear
3:00 AM 48.2 °F - 44.6 °F 87% 30.06 in - Calm Calm - N/A   Clear
3:30 AM 48.2 °F - 46.4 °F 93% 30.06 in - SW 4.6 mph - N/A   Clear
4:00 AM 48 °F - 45 °F 84% 30.06 in - SSW 4.6 mph - -  
4:00 AM 48.2 °F - 44.6 °F 87% 30.06 in - SSW 4.6 mph - N/A   Clear
4:30 AM 48.2 °F - 44.6 °F 87% 30.06 in - SSW 5.8 mph - N/A   Clear
5:00 AM 46.4 °F 44.3 °F 44.6 °F 93% 30.06 in - SW 4.6 mph - N/A   Clear
5:30 AM 46.4 °F 44.3 °F 42.8 °F 87% 30.06 in - SSW 4.6 mph - N/A   Clear
6:00 AM 46 °F - 43 °F 87% 30.08 in 25 mi SW 1.2 mph - -   Partly Cloudy
6:00 AM 46.4 °F - 42.8 °F 87% 30.06 in - SW 1.2 mph - N/A   Clear
6:30 AM 46.4 °F 44.3 °F 42.8 °F 87% 30.06 in - SSW 4.6 mph - N/A   Clear
7:00 AM 48.2 °F - 44.6 °F 87% 30.09 in - SSW 6.9 mph - N/A   Clear
7:30 AM 51.8 °F - 46.4 °F 82% 30.09 in - SSW 4.6 mph - N/A   Clear
8:00 AM 53.6 °F - 48.2 °F 82% 30.09 in - WSW 5.8 mph - N/A   Clear
8:30 AM 57.2 °F - 48.2 °F 72% 30.09 in - SW 5.8 mph - N/A   Clear
9:00 AM 61 °F - 49 °F 54% 30.11 in 25 mi WSW 5.8 mph - -   Partly Cloudy
9:00 AM 60.8 °F - 48.2 °F 63% 30.09 in - WSW 5.8 mph - N/A   Clear
9:30 AM 66.2 °F - 48.2 °F 52% 30.09 in - WNW 5.8 mph - N/A   Clear
10:00 AM 70 °F - 43 °F 26% 30.10 in - WNW 8.1 mph - -  
10:00 AM 69.8 °F - 42.8 °F 38% 30.09 in - WNW 8.1 mph - N/A   Clear
10:30 AM 69.8 °F - 42.8 °F 38% 30.06 in - West 9.2 mph - N/A   Clear
11:00 AM 71.6 °F - 41.0 °F 33% 30.06 in - SW 8.1 mph - N/A   Clear
11:30 AM 71.6 °F - 39.2 °F 31% 30.06 in - West 12.7 mph - N/A   Clear
12:00 PM 73 °F - 40 °F 19% 30.04 in 25 mi WSW 15.0 mph - -   Partly Cloudy
12:00 PM 73.4 °F - 39.2 °F 29% 30.04 in - WSW 15.0 mph - N/A   Clear
12:30 PM 73.4 °F - 39.2 °F 29% 30.01 in - SW 11.5 mph - N/A   Clear
1:00 PM 73 °F - 39 °F 18% 30.01 in - West 11.5 mph - -  
1:00 PM 73.4 °F - 39.2 °F 29% 30.01 in - West 11.5 mph - N/A   Clear
1:30 PM 73.4 °F - 41.0 °F 31% 29.98 in - SW 10.4 mph - N/A   Clear
2:00 PM 75.2 °F - 41.0 °F 29% 29.98 in - West 8.1 mph - N/A   Clear
2:30 PM 75.2 °F - 41.0 °F 29% 29.95 in - NNW 6.9 mph - N/A   Clear
3:00 PM 74 °F - 44 °F 23% 29.96 in 25 mi North 9.2 mph - -   Partly Cloudy
3:00 PM 73.4 °F - 42.8 °F 33% 29.95 in - North 9.2 mph - N/A   Clear
3:30 PM 73.4 °F - 44.6 °F 36% 29.95 in - North 9.2 mph - N/A   Clear
4:00 PM 72 °F - 48 °F 31% 29.97 in - NNE 9.2 mph - -  
4:00 PM 71.6 °F - 48.2 °F 43% 29.95 in - NNE 9.2 mph - N/A   Unknown
4:30 PM 68.0 °F - 51.8 °F 56% 29.95 in - NNE 10.4 mph - N/A   Clear
5:00 PM 64.4 °F - 50.0 °F 59% 29.98 in - NNE 10.4 mph - N/A   Clear
5:30 PM 64.4 °F - 53.6 °F 68% 29.98 in - North 10.4 mph - N/A   Clear
6:00 PM 63 °F - 55 °F 67% 30.00 in 25 mi North 11.5 mph - -   Partly Cloudy
6:00 PM 62.6 °F - 55.4 °F 77% 29.98 in - North 11.5 mph - N/A   Clear
6:30 PM 62.6 °F - 55.4 °F 77% 30.01 in - North 9.2 mph - N/A   Clear
7:00 PM 62 °F - 56 °F 77% 30.01 in - North 9.2 mph - -  
7:00 PM 62.6 °F - 57.2 °F 82% 30.01 in - North 9.2 mph - N/A   Clear
7:30 PM 60.8 °F - 55.4 °F 82% 30.01 in - North 8.1 mph - N/A   Clear
8:00 PM 60.8 °F - 55.4 °F 82% 30.01 in - NNW 6.9 mph - N/A   Clear
8:30 PM 59.0 °F - 55.4 °F 88% 30.01 in - NNW 5.8 mph - N/A   Clear
9:00 PM 58 °F - 54 °F 81% 30.04 in 19 mi Calm Calm - -   Partly Cloudy
9:00 PM 59.0 °F - 53.6 °F 82% 30.04 in - Calm Calm - N/A   Clear
9:30 PM 57.2 °F - 53.6 °F 88% 30.01 in - North 4.6 mph - N/A   Clear
10:00 PM 57 °F - 54 °F 84% 30.03 in - North 5.8 mph - -  
10:00 PM 57.2 °F - 53.6 °F 88% 30.01 in - North 5.8 mph - N/A   Clear
10:30 PM 55.4 °F - 53.6 °F 94% 30.01 in - WNW 4.6 mph - N/A   Clear
11:00 PM 53.6 °F - 48.2 °F 82% 30.01 in - NW 5.8 mph - N/A   Clear
11:30 PM 51.8 °F - 50.0 °F 94% 30.01 in - NW 4.6 mph - N/A   Clear